Automated Weather Station

Magsaysay, Infanta, Quezon


Readings

as of November 11, 2016 04:01 PM
Wind Speed
3.4 mm
Rainfall Amount
0.14 mm
Rainfall Intensity
11.3 mm
Air Temperature
mm
Wind Direction
96 mm
Air Humidity
97.7 mm

Data Source: PREDICT (Advanced Science and Technology Institute)

12 HOUR DATA

PREVIOUS DATA

From
To
DateTime Wind Speed Rain Amount Rain Intensity Air Temperature Air Pressure Wind Direction Air Humidity
October 26, 2013 08:15 PM 12.2 0 mm 0 19.8 933.1 58 94.4
October 26, 2013 08:00 PM 6 0 mm 0 20.1 932.83 69 94.5
October 26, 2013 07:45 PM 16.2 0 mm 0 20.1 932.83 72 94.4
October 26, 2013 07:30 PM 0 0 mm 0 19.9 932.7 0 94.1
October 26, 2013 07:15 PM 6.4 0 mm 0 20 932.43 166 94
October 26, 2013 07:00 PM 0 0 mm 0 19.9 932.43 0 93.7
October 26, 2013 06:45 PM 9.1 0 mm 0 19.8 932.43 35 93.8
October 26, 2013 06:30 PM 9.7 0 mm 0 19.8 932.17 39 94.2
October 26, 2013 06:15 PM 0 0 mm 0 20 932.03 0 94.3
October 26, 2013 06:00 PM 3.8 0 mm 0 19.9 932.03 94 94.2
October 26, 2013 05:45 PM 6.6 0 mm 0 20.2 931.9 354 94.3
October 26, 2013 05:30 PM 7.7 0 mm 0 20.1 931.77 96 93.9
October 26, 2013 05:15 PM 0 0 mm 0 20 931.63 0 93.1
October 26, 2013 05:00 PM 5.6 0 mm 0 20 931.63 122 93.2
October 26, 2013 04:45 PM 8.4 0 mm 0 20.1 931.5 38 93.8
October 26, 2013 04:30 PM 4.2 0 mm 0 20.1 931.5 335 93.7
October 26, 2013 04:15 PM 12.6 0 mm 0 20.1 931.23 40 93.7
October 26, 2013 04:00 PM 14.5 0 mm 0 20.1 931.23 69 93.4
October 26, 2013 03:45 PM 0 0.01 mm 0 20 931.23 0 93.1
October 26, 2013 03:30 PM 7.5 0 mm 0 20.1 931.23 68 93.4
October 26, 2013 03:15 PM 10.1 0 mm 0 20.4 931.23 97 93
October 26, 2013 03:00 PM 0 0.05 mm 0 20.4 931.1 0 93.3
October 26, 2013 02:45 PM 5.8 0.01 mm 0.2 20.4 931.1 128 91.9
October 26, 2013 02:30 PM 0 0 mm 0 20.7 931.23 0 92.4
October 26, 2013 02:15 PM 5.6 0 mm 0 20.5 931.23 48 93.2
October 26, 2013 02:00 PM 0 0 mm 0 20.4 931.23 0 92.8
October 26, 2013 01:45 PM 0 0 mm 0 20.6 931.23 0 92.4
October 26, 2013 01:30 PM 0 0.01 mm 0 20.7 931.37 0 94
October 26, 2013 01:15 PM 0 0.01 mm 0.1 20.3 931.77 0 92.1
October 26, 2013 01:00 PM 6 0 mm 0 21.2 931.63 301 91.8